Regional & State Weather Roundups


097 
ASUS46 KEKA 151916
RWREKA
Eureka Area Weather Roundup
National Weather Service Eureka CA
1100 AM PST FRI DEC 15 2017
Note: "fair" indicates few or no clouds below 12,000 feet with no
significant weather and/or obstructions to visibility.
Southwest Oregon...
  
CITY           SKY/WX    TMP DP  RH WIND       PRES   REMARKS
MEDFORD        CLOUDY    36  34  92 CALM      30.27F FOG              
KLAMATH FALLS  CLOUDY    32  27  81 CALM      30.23F                  
NORTH BEND     CLOUDY    45  41  86 SE9       30.31F                  
ROSEBURG       CLOUDY    37  34  89 CALM      30.33R                  
SEXTON SUMMIT  CLOUDY    47  26  44 N3        30.22                   
BROOKINGS      CLOUDY    50  46  86 CALM      30.25S FOG              
Northwest California...
  
CITY           SKY/WX    TMP DP  RH WIND       PRES   REMARKS
CRESCENT CITY  CLOUDY    54  48  80 NW6       30.26R HAZE             
MCKINLEYVILLE  CLOUDY    52  50  93 W3        30.24R                  
EUREKA         CLOUDY    49  32  52 CALM      30.25R FOG              
FORTUNA        CLOUDY    46  46 100 CALM      30.23F VSB 1            
WEAVERVILLE    NOT AVBL                                               
TRINITY CENTER CLOUDY    37  37 100 CALM      30.23F                  
UKIAH          CLOUDY    47  40  76 CALM      30.19F                  
North & Central California...
  
CITY           SKY/WX    TMP DP  RH WIND       PRES   REMARKS
YREKA          CLOUDY    33  28  81 CALM      30.27F                  
MOUNT SHASTA   CLOUDY    43  27  53 MISG      30.21F                  
REDDING        CLOUDY    49  40  71 CALM      30.17F                  
RED BLUFF      CLOUDY    51  38  60 N3        30.18F                  
CHICO          CLOUDY    48  39  71 VRB6      30.20S                  
YUBA CITY      MOSUNNY   50  43  77 W3        30.20F                  
SACRAMENTO     PTSUNNY   50  45  83 CALM      30.19F HAZE             
SANTA ROSA     PTSUNNY   49  44  83 CALM      30.18F                  
NAPA           PTSUNNY   51  42  71 CALM      30.19F                  
SAN FRANCISCO  PTSUNNY   54  42  64 E5        30.17F                  
OAKLAND        CLOUDY    52  46  80 S5        30.19S                  
SALINAS        SUNNY     58  27  30 SE8       30.16S                  
MONTEREY       SUNNY     61  41  47 CALM      30.16S                  
$$